Overview Statistics Trail Chart Weather Telemetry Raw packets
 

This is the latest recevied weather packets stored in our database for station/object W5DNT. If no packets are shown the sender has not sent any weather packets the latest 10 day(s).

<< 18 19 20 21 22 23 24 >>
Time Temp. Humidity Pressure Rain* Wind** Luminosity Snow
1788208220 36.67° C 35% 1013 hPa 0 mm - - -
1788207323 36.67° C 35% 1013.3 hPa 0 mm - - -
1788206412 36.67° C 36% 1013.4 hPa 0 mm - - -
1788205508 36.11° C 36% 1013.5 hPa 0 mm - - -
1788204604 36.11° C 37% 1013.7 hPa 0 mm - - -
1788203702 35° C 39% 1014.2 hPa 0 mm - - -
1788202868 35° C 39% 1014.3 hPa 0 mm - - -
1788201959 35° C 40% 1014.5 hPa 0 mm - - -
1788201067 35° C 40% 1014.6 hPa 0 mm - - -
1788200160 34.44° C 42% 1014.8 hPa 0 mm - - -
1788199271 35° C 43% 1015 hPa 0 mm - - -
1788198353 34.44° C 42% 1015.3 hPa 0 mm - - -
1788197448 33.89° C 44% 1015.4 hPa 0 mm - - -
1788196548 33.89° C 45% 1015.7 hPa 0 mm - - -
1788195644 33.33° C 48% 1015.8 hPa 0 mm - - -
1788194746 32.78° C 51% 1015.9 hPa 0 mm - - -
1788193835 32.22° C 51% 1015.8 hPa 0 mm - - -
1788192933 31.67° C 58% 1015.8 hPa 0 mm - - -
1788192028 31.11° C 58% 1015.8 hPa 0 mm - - -
1788191138 30.56° C 63% 1015.7 hPa 0 mm - - -
1788190222 30° C 68% 1015.6 hPa 0 mm - - -
1788189320 28.89° C 68% 1015.5 hPa 0 mm - - -
1788188421 28.33° C 69% 1015.4 hPa 0 mm - - -
1788187514 27.78° C 71% 1015.4 hPa 0 mm - - -
1788186614 27.22° C 74% 1015.5 hPa 0 mm - - -

* Rain latest hour (hover to see other rain measurements)
** Current wind speed in m/s (hover to see current wind gust speed)